Location: Cluj-Napoca
(46.7712°N, 23.6236°E)
Time: 18:07:26
(UTC+03:00)

ISS - Pass Details

Date: 23 May 2020
Orbit: 417 x 420 km, 51.6° (Epoch: 26 May)

Event Time Altitude Azimuth Distance (km) Brightness Sun altitude
Rises 23:20:13 0° 291° (WNW) 2,367 0.9 -17.0°
Reaches altitude 10° 23:22:24 10° 299° (WNW) 1,503 -0.1 -17.2°
Maximum altitude 23:25:36 39° 11° (N) 646 -2.4 -17.5°
Enters shadow 23:28:04 15° 76° (ENE) 1,229 -1.5 -17.7°
